User: anonymous   Login
Location: Unspecified
(0.0000°N, 0.0000°E)
Time: 08:59:30
(UTC+00:00)
Language:

Transat O-11 - Orbit

View from above orbital plane
View from above orbital plane
View from above satellite
View from above satellite

Ground track
Ground track

The orbit data is extracted from the following two-line orbital elements,

1 10457U 77106A   18016.87071529  .00000010  00000-0  98811-6 0  9997
2 10457  89.7588 166.9122 0024125 233.1119 281.6834 13.48581705978531
Epoch (UTC): 16 January 2018 20:53:49
Eccentricity: 0.0024125
inclination: 89.7588°
perigee height: 1059 km
apogee height: 1095 km
right ascension of ascending node: 166.9122°
argument of perigee: 233.1119°
revolutions per day: 13.48581705
mean anomaly at epoch: 281.6834°
orbit number at epoch: 97853

The dashed part of the orbit path shows where the satellite is in the earth's shadow,  

DLR